This is the latest recevied weather packets stored in our database for station/object IW8XOI-10. If no packets are shown the sender has not sent any weather packets the latest 10 day(s).
| Time | Temp. | Humidity | Pressure | Rain* | Wind** | Luminosity | Snow |
|---|---|---|---|---|---|---|---|
| 1777694172 | 14.44° C | 50% | 1031.6 hPa | - | - | - | - |
| 1777690573 | 15° C | 50% | 1031.2 hPa | - | - | - | - |
| 1777686972 | 15.56° C | 50% | 1031.3 hPa | - | - | - | - |
| 1777683372 | 16.11° C | 49% | 1031.5 hPa | - | - | - | - |
| 1777679772 | 16.67° C | 48% | 1031.4 hPa | - | - | - | - |
| 1777676172 | 17.22° C | 47% | 1031.5 hPa | - | - | - | - |
| 1777672574 | 18.33° C | 47% | 1031.5 hPa | - | - | - | - |
| 1777668972 | 19.44° C | 47% | 1031.3 hPa | - | - | - | - |
| 1777665372 | 20.56° C | 46% | 1031.2 hPa | - | - | - | - |
| 1777661773 | 22.22° C | 45% | 1030.7 hPa | - | - | - | - |
| 1777658180 | 23.33° C | 45% | 1030.4 hPa | - | - | - | - |
| 1777654573 | 23.33° C | 46% | 1029.6 hPa | - | - | - | - |
| 1777650973 | 23.33° C | 46% | 1030.2 hPa | - | - | - | - |
| 1777647374 | 23.33° C | 46% | 1030.2 hPa | - | - | - | - |
| 1777643773 | 22.78° C | 47% | 1030.5 hPa | - | - | - | - |
| 1777640175 | 22.22° C | 49% | 1030.4 hPa | - | - | - | - |
| 1777636573 | 21.11° C | 49% | 1030.5 hPa | - | - | - | - |
| 1777632973 | 20° C | 50% | 1030.6 hPa | - | - | - | - |
| 1777629373 | 18.33° C | 50% | 1030.5 hPa | - | - | - | - |
| 1777625774 | 17.22° C | 50% | 1030.7 hPa | - | - | - | - |
| 1777622174 | 16.11° C | 50% | 1030.3 hPa | - | - | - | - |
| 1777618642 | 14.44° C | 50% | 1029.7 hPa | - | - | - | - |
| 1777618574 | 14.44° C | 50% | 1029.7 hPa | - | - | - | - |
| 1777614974 | 15° C | 50% | 1030.1 hPa | - | - | - | - |
| 1777611374 | 14.44° C | 52% | 1030 hPa | - | - | - | - |
* Rain since midnight (hover to see other rain measurements)
** Current wind speed in m/s (hover to see current wind gust speed)